Theta_e
287 287 285 284 283 283 282 283 283 284 283 283 284 285 285 285 286 286 287 287 288 288 287 287 288 288 288 287 287 286 285 285 285 285 285 285 284 284 284 284 283 283 283 283 282 281 281 281 281 281 280 280 280 279 279 278 278 278 278 277 278 278
287 287 286 285 284 283 283 283 283 283 283 283 283 284 283 283 284 284 285 286 286 287 286 286 287 287 287 287 286 286 286 285 285 285 284 285 284 284 284 284 283 283 283 282 282 281 281 280 280 280 280 280 280 279 279 278 278 278 277 277 278 278
288 288 287 286 285 284 283 283 283 283 283 283 283 283 283 284 284 284 285 285 285 285 286 286 286 286 286 285 285 285 285 285 285 285 285 283 284 284 283 283 283 283 283 282 282 281 280 280 280 280 280 279 279 279 279 278 278 278 277 277 277 277
289 289 290 290 289 289 287 286 284 284 284 283 283 283 283 284 284 284 284 284 285 285 286 286 285 285 285 285 285 285 285 285 285 284 283 283 283 283 283 283 283 283 283 282 281 281 280 280 280 280 280 279 279 278 278 278 277 277 276 277 276 276
288 288 288 288 288 289 289 289 288 287 286 285 284 283 284 283 284 283 284 284 284 284 284 284 285 284 284 284 285 285 285 285 284 284 284 283 283 283 283 283 283 283 282 282 281 281 280 280 280 280 279 279 279 278 278 278 277 277 277 276 276 276
287 288 288 288 288 288 288 288 288 288 288 287 285 284 284 283 284 284 284 284 284 284 284 284 285 284 284 284 285 285 285 286 285 284 284 283 283 282 283 283 282 282 282 281 281 281 280 280 280 279 279 279 279 278 278 277 277 277 277 277 277 276
286 287 287 287 287 287 287 288 288 288 288 287 287 286 285 284 284 283 283 283 284 284 284 284 284 284 284 285 285 285 286 286 285 285 284 283 282 282 282 282 282 282 281 281 281 281 280 280 280 279 279 279 279 278 278 277 277 277 277 277 277 278
286 286 286 287 287 287 287 287 287 287 287 287 287 286 286 286 285 284 283 283 283 284 284 284 284 284 284 285 285 286 286 285 285 284 283 283 283 282 282 282 282 282 281 281 281 281 281 280 280 279 279 279 278 278 278 277 277 277 277 277 277 277
284 285 286 286 286 286 287 286 286 286 286 286 286 287 287 286 285 285 284 284 284 284 284 284 284 284 284 285 285 286 285 285 284 283 283 283 283 282 282 282 282 282 282 282 282 281 281 280 280 279 279 279 278 278 277 277 277 277 277 277 276 276
284 284 285 285 286 286 286 286 286 286 286 285 285 286 286 287 287 286 284 284 284 284 284 284 285 285 285 285 285 285 284 284 284 284 283 283 283 282 282 282 282 282 282 282 282 281 281 280 280 279 279 278 278 278 277 277 277 277 276 276 276 276
283 284 284 285 285 285 285 286 286 286 286 286 285 285 285 286 286 286 286 285 284 285 285 285 285 285 285 285 285 284 284 284 284 284 283 283 283 283 282 282 282 282 282 282 282 281 281 280 280 279 279 278 278 278 277 277 277 276 276 275 275 275
282 283 284 284 284 285 285 285 285 285 285 285 285 285 286 286 286 286 286 286 286 286 285 285 285 285 284 284 284 284 284 284 284 283 282 282 282 282 282 281 281 282 281 281 281 281 280 280 280 281 283 282 278 278 277 277 277 276 276 275 274 274
282 283 283 283 284 284 284 284 284 285 285 285 285 285 286 286 286 285 285 285 286 286 286 285 285 285 284 284 284 284 284 284 284 283 282 282 281 281 281 281 281 281 281 281 281 280 280 280 280 283 284 284 284 279 277 277 276 276 276 275 274 273
282 283 283 283 284 284 284 284 284 284 284 284 284 285 286 286 285 285 285 285 286 286 285 285 284 284 284 283 283 283 283 283 282 282 282 281 280 280 280 280 281 281 281 281 281 280 280 280 282 284 285 285 285 282 278 277 277 276 276 275 275 274
282 283 283 284 284 284 284 284 284 284 284 283 284 285 285 285 284 284 284 285 285 285 285 284 284 283 283 283 283 282 281 281 281 281 280 280 280 280 280 280 281 280 281 281 280 280 280 280 283 284 285 286 286 284 281 277 277 276 275 275 274 274
283 284 283 283 284 284 284 284 284 284 284 284 285 285 284 284 283 283 284 284 284 284 284 283 283 282 283 282 281 281 280 280 281 281 281 281 280 280 280 280 280 280 280 280 280 280 279 279 282 285 285 286 286 285 282 277 276 276 275 274 274 272
283 282 282 283 283 283 283 283 283 283 283 284 284 284 284 283 283 283 283 283 283 283 283 283 282 281 281 281 280 279 280 280 281 281 281 280 280 280 280 280 279 280 280 280 280 279 279 279 283 285 286 286 286 286 283 277 276 275 274 273 273 272
282 281 281 283 282 281 282 281 282 281 282 283 283 283 283 283 283 283 283 282 282 282 282 282 281 281 280 280 278 277 279 279 279 280 280 279 279 280 280 280 280 280 279 279 279 279 278 279 283 284 285 286 286 286 280 276 275 274 274 273 272 272
282 281 282 281 281 280 280 280 280 280 281 280 281 281 281 282 282 282 283 282 282 282 281 281 280 280 280 279 278 278 278 279 278 279 278 278 279 279 279 279 279 280 279 279 278 278 278 277 281 284 285 286 286 285 277 275 274 273 273 272 272 272
281 281 281 279 279 279 279 279 279 279 278 278 279 279 279 280 281 282 282 282 282 281 281 280 279 279 279 279 278 278 279 278 278 278 278 279 279 279 279 279 279 279 279 279 278 278 277 276 280 284 285 286 286 284 275 274 273 272 272 272 272 272
280 280 279 278 278 278 278 277 277 277 276 277 277 278 278 279 279 280 280 281 282 282 281 280 279 279 279 278 279 278 278 279 279 279 279 279 279 279 279 278 278 278 278 278 278 279 278 276 279 284 285 286 286 282 275 274 273 272 271 271 271 272
278 278 277 277 277 277 276 276 276 276 275 275 276 276 277 277 278 278 278 279 281 282 282 281 280 279 278 278 278 278 278 277 277 277 278 278 278 278 277 277 277 277 277 277 277 277 278 276 277 281 285 286 286 283 275 274 273 271 271 271 271 271
277 277 276 276 276 275 275 275 274 273 274 274 275 275 276 276 276 276 276 278 282 282 282 281 280 279 279 278 278 278 277 276 276 275 274 275 276 275 275 276 276 276 275 275 275 275 277 276 276 279 284 285 286 284 278 273 273 272 272 271 271 271
276 275 275 275 275 274 274 273 272 272 272 273 273 274 275 275 274 274 275 278 280 279 279 280 280 280 279 278 277 277 277 274 273 275 274 274 274 274 275 275 274 274 274 273 273 274 275 276 278 277 283 285 286 284 280 274 274 274 272 272 271 272
273 273 273 273 273 273 273 271 270 271 271 271 272 274 273 273 272 273 274 276 276 276 276 277 278 279 279 278 278 277 277 275 273 273 274 274 274 274 274 273 273 272 272 271 272 272 273 274 276 279 280 284 286 285 281 279 277 278 274 273 271 272
272 271 271 272 272 271 272 271 270 270 270 270 272 272 271 271 271 272 273 274 274 274 274 274 276 278 278 277 277 277 277 276 274 274 274 274 274 273 273 272 271 271 271 270 270 270 272 273 274 277 280 282 285 285 282 281 279 279 274 274 273 273
269 270 269 270 270 270 269 269 268 268 268 269 270 269 269 269 270 271 272 271 271 271 271 272 273 274 277 277 277 276 276 276 274 273 273 273 273 273 272 272 271 271 271 270 270 270 271 272 273 274 278 281 283 285 283 282 281 281 279 274 273 274
268 268 268 268 269 269 269 268 268 267 268 269 268 268 268 268 269 269 268 268 268 269 270 270 271 273 275 277 276 276 276 276 275 274 274 273 273 273 273 272 271 271 271 271 270 270 270 271 272 273 275 278 281 283 284 282 281 281 279 276 274 276
267 267 267 267 268 268 268 267 267 267 267 267 267 267 267 267 266 266 266 265 266 267 268 268 270 272 274 276 276 275 275 276 275 274 273 273 273 273 273 273 272 271 271 271 271 270 269 269 271 272 273 275 278 280 283 281 280 281 279 275 274 276
266 266 266 266 267 267 267 266 266 266 265 265 266 265 265 264 264 263 263 263 264 265 267 268 270 271 273 275 276 275 275 275 275 274 273 273 273 273 272 272 272 271 271 271 272 270 268 268 269 271 272 274 276 279 281 280 279 278 275 273 274 274
265 265 265 265 266 266 265 264 264 264 264 264 264 263 262 262 262 262 261 262 263 264 267 268 270 271 272 274 275 275 275 275 274 274 274 275 275 275 274 273 273 273 273 273 272 269 268 268 269 270 275 275 278 279 280 279 278 277 274 275 276 274
265 264 264 265 265 264 264 263 263 263 263 263 262 262 261 261 261 260 261 262 263 264 266 268 269 271 273 274 274 274 274 276 278 277 275 274 277 278 279 278 275 274 274 273 273 272 269 269 270 274 277 277 279 281 283 281 280 279 275 277 279 275
264 264 263 263 263 262 262 262 262 261 261 261 261 261 260 260 259 260 260 261 262 264 265 267 268 270 271 272 273 274 273 273 275 279 280 279 278 278 279 280 280 279 278 274 272 274 276 275 275 276 277 278 279 281 282 282 281 280 279 279 275 271
262 262 261 262 261 260 260 260 260 260 260 260 259 260 259 259 259 258 259 260 261 262 264 265 266 269 271 272 273 273 273 273 272 273 277 280 280 279 279 279 280 280 279 279 276 273 272 275 277 277 278 278 280 281 282 282 282 280 280 279 277 270
261 261 260 260 259 259 259 259 259 259 259 259 259 259 258 258 258 258 258 259 260 262 263 265 266 268 269 270 272 272 273 272 272 271 271 274 279 280 279 279 280 280 280 279 279 278 275 275 276 277 278 279 279 281 282 282 282 280 280 279 272 268
259 259 258 258 257 257 257 257 258 258 258 258 258 258 258 258 258 258 259 259 261 262 263 265 266 266 267 269 271 272 273 273 272 272 272 271 271 273 277 279 280 280 280 280 280 279 278 277 277 278 278 279 280 281 282 282 280 281 281 277 270 268
257 257 257 257 257 257 257 257 257 258 258 258 258 258 258 258 258 259 261 263 264 264 263 263 264 264 264 265 266 268 271 272 272 272 272 271 271 270 271 272 275 278 280 278 278 279 279 278 278 278 279 279 280 281 282 282 278 277 276 273 269 268
256 256 256 256 256 256 256 256 257 258 258 258 258 258 258 259 259 260 260 261 261 261 261 262 262 263 264 265 267 269 272 273 272 272 271 271 271 271 271 272 273 274 277 280 279 279 280 279 279 279 279 279 280 281 282 277 275 274 273 269 268 267
Wind_Speed
15 15 14 12 9 8 7 4 2 3 4 4 4 7 6 5 5 6 7 8 9 9 11 12 12 11 11 10 10 9 9 10 10 10 9 8 10 10 10 11 11 12 12 12 11 10 11 10 11 10 10 11 10 9 9 8 8 8 8 7 7 7
14 14 15 15 13 9 7 8 8 8 8 6 5 5 5 5 6 6 9 10 9 9 7 9 9 9 9 8 9 10 12 12 10 9 8 11 9 11 12 13 14 14 14 13 13 12 11 12 11 11 11 10 10 10 9 9 10 9 9 8 6 7
16 16 13 11 9 7 6 7 7 6 7 7 7 8 7 7 7 6 9 5 8 8 11 11 9 10 8 7 9 10 10 9 9 10 9 5 10 10 12 12 13 14 14 14 14 14 14 14 13 11 11 11 11 10 10 10 11 11 9 8 8 6
16 16 17 17 18 17 17 12 8 8 8 7 7 7 7 8 9 6 6 6 7 9 10 8 6 7 7 9 9 10 10 10 10 9 7 11 9 11 12 13 12 13 14 14 14 14 14 14 15 14 13 13 13 12 10 11 12 11 10 9 10 9
12 12 13 14 16 16 16 15 15 13 13 12 8 7 9 6 8 5 6 7 7 9 7 7 8 6 8 11 11 12 12 11 10 9 12 11 9 9 11 12 13 13 13 13 13 14 14 15 15 14 14 14 15 15 13 12 13 14 13 13 12 12
12 15 16 15 14 13 14 13 13 13 13 13 11 11 11 8 8 8 7 8 10 10 9 10 9 9 10 12 13 14 14 13 13 12 12 12 11 12 11 11 12 12 14 14 14 14 15 15 14 15 15 16 16 15 15 14 14 13 13 14 13 13
17 15 14 14 14 13 12 13 13 13 12 12 13 12 11 10 8 8 8 8 11 10 10 12 10 11 12 14 13 15 14 13 12 10 13 11 12 13 12 12 12 13 14 15 16 16 15 16 15 15 15 14 14 15 15 15 15 14 15 15 14 13
16 18 17 15 14 13 12 11 10 11 11 12 10 11 11 12 10 8 9 8 9 11 11 12 10 13 15 15 15 16 14 12 11 11 10 12 14 12 13 14 13 14 16 16 15 15 15 14 14 16 16 16 15 14 14 15 15 15 15 14 14 14
18 16 16 16 16 15 14 13 12 11 10 11 12 12 11 10 10 11 11 11 10 11 11 11 12 13 13 15 15 13 11 12 12 12 13 12 13 14 14 14 15 14 16 16 15 15 16 15 15 14 15 15 15 16 16 15 15 15 14 13 14 14
14 15 15 16 16 16 15 14 14 14 12 12 11 12 12 12 13 12 10 10 11 11 12 11 12 13 14 14 13 12 12 12 12 14 13 12 15 15 16 16 17 14 13 15 15 16 15 15 15 15 15 16 17 16 17 16 16 16 14 13 13 13
13 14 14 15 16 17 17 15 15 15 16 15 16 14 13 12 12 13 13 11 10 11 12 12 11 11 13 13 13 12 13 13 13 12 12 13 14 13 15 14 14 14 15 14 15 16 15 16 16 15 16 17 17 16 16 17 16 16 15 14 13 13
10 11 13 15 16 16 17 16 16 15 15 15 15 16 16 14 13 14 14 14 14 12 11 12 12 12 12 12 13 14 13 12 12 11 12 14 14 13 11 11 13 14 15 15 14 14 14 15 13 15 22 19 16 16 13 12 14 15 14 15 14 13
12 11 12 13 14 14 14 14 15 14 14 15 15 15 15 13 14 15 13 14 14 14 14 12 11 12 13 13 12 11 11 12 11 12 13 12 11 12 12 12 13 15 14 15 15 16 15 14 13 20 25 25 24 17 15 15 14 14 14 14 15 15
13 14 14 15 15 15 14 14 14 13 15 16 16 16 14 13 13 14 14 13 14 14 14 13 13 12 13 11 12 11 11 10 10 11 11 11 11 11 9 13 16 14 13 12 14 15 15 14 13 22 25 26 26 21 15 14 13 13 14 14 14 13
10 11 12 13 14 15 17 16 16 15 15 16 15 14 14 15 14 14 14 14 15 15 15 15 13 12 12 12 11 10 8 9 10 11 10 12 10 9 12 15 12 13 13 13 14 15 14 12 16 23 25 25 26 25 18 12 13 14 14 14 14 14
9 10 11 12 12 12 13 12 12 13 13 13 14 13 13 14 14 13 13 13 14 14 14 15 14 14 13 11 9 8 8 8 11 10 9 8 7 10 11 11 13 12 12 14 14 13 12 12 15 23 25 25 25 25 21 12 13 13 13 14 13 12
9 11 12 11 12 13 13 13 13 15 14 13 13 12 12 13 13 12 11 13 14 13 14 14 14 14 13 11 10 8 8 9 9 8 8 8 10 12 13 13 13 13 13 13 12 11 12 12 17 23 25 25 25 25 20 11 11 10 10 10 11 11
10 11 11 10 10 11 11 11 13 14 15 14 13 14 13 12 12 12 11 13 14 14 14 14 14 14 13 12 10 8 9 8 8 9 7 7 8 7 7 8 10 12 13 12 12 12 12 10 19 23 25 26 25 26 15 11 11 10 9 10 8 8
8 10 9 10 10 11 11 11 12 13 14 14 12 12 12 12 12 12 13 13 14 14 14 13 14 14 13 12 11 10 9 9 9 7 4 6 8 8 10 11 11 10 11 12 13 13 12 9 17 23 24 25 27 20 11 11 10 10 9 7 9 8
6 8 8 9 10 10 10 11 12 13 13 13 13 13 13 13 12 12 12 14 14 14 14 14 13 14 13 12 11 12 10 8 6 6 5 8 8 9 10 8 8 9 9 12 13 14 12 11 15 24 25 26 28 18 13 12 11 10 10 7 6 6
7 8 7 8 11 10 9 11 12 12 13 12 12 12 13 13 14 14 14 15 14 12 12 11 12 12 13 12 12 10 10 9 8 6 4 6 6 7 6 6 7 8 8 9 11 11 13 10 14 25 26 28 30 19 12 12 12 12 11 9 7 8
8 8 8 9 10 9 10 10 11 11 12 14 13 12 13 13 14 15 16 16 14 11 11 10 11 12 12 13 12 10 9 7 5 6 6 6 6 6 5 6 7 9 8 7 9 10 12 11 11 17 26 27 29 24 13 11 13 13 12 12 13 11
8 10 11 9 9 8 8 8 9 11 11 12 12 14 14 13 13 15 16 16 14 12 12 12 11 13 13 11 12 11 8 6 6 5 5 6 5 4 5 6 7 7 7 6 7 7 9 9 11 15 26 27 29 28 21 13 14 12 13 13 12 12
10 10 11 10 10 10 9 8 10 12 12 11 12 12 13 14 15 15 15 15 14 14 15 14 14 12 11 11 10 11 10 6 5 5 5 6 5 6 7 6 6 7 6 5 6 7 8 8 14 11 20 27 29 27 25 13 12 13 13 13 12 12
11 12 13 13 11 10 9 8 11 12 11 13 14 12 12 14 15 16 16 15 14 14 15 16 17 14 10 10 10 10 11 7 5 5 5 5 6 7 7 6 6 6 6 5 5 5 6 7 9 16 14 24 28 28 26 22 15 21 14 14 14 13
10 12 12 13 12 10 10 9 12 13 15 17 12 11 13 13 15 15 16 15 13 14 14 16 17 16 12 11 10 9 10 9 6 5 5 6 6 6 6 5 5 6 7 7 7 6 7 7 7 12 17 17 28 27 27 25 22 22 13 11 10 9
11 13 14 15 14 12 9 8 10 14 18 16 10 12 14 15 15 16 13 15 15 18 15 16 15 17 15 12 9 10 9 9 6 7 6 6 6 7 7 7 6 8 8 8 9 8 7 7 8 8 14 20 21 27 26 26 25 24 22 12 8 9
10 12 15 18 16 14 9 9 8 14 16 13 12 13 14 15 15 14 17 17 16 17 18 18 19 15 17 13 9 9 9 9 8 8 7 7 8 7 8 8 8 8 8 9 8 8 8 8 8 9 10 14 15 18 26 26 26 26 23 15 11 15
13 14 15 17 18 15 11 11 11 12 12 13 13 14 14 14 15 15 16 16 18 16 17 15 15 14 13 14 9 8 9 8 8 8 8 8 8 9 9 9 9 9 9 10 9 8 9 10 8 8 8 9 10 10 13 18 18 25 23 13 11 14
14 15 16 16 18 14 13 13 13 12 13 13 13 12 13 16 16 16 16 17 13 14 16 15 19 19 12 13 10 9 9 8 9 9 11 10 10 10 10 10 10 11 11 11 9 9 10 9 10 10 10 11 11 11 10 13 13 14 12 12 12 12
15 15 15 18 17 15 14 14 13 12 12 12 11 11 14 17 18 18 18 18 12 13 14 13 11 13 13 13 11 10 10 10 10 11 11 11 10 11 12 11 12 11 11 10 10 12 11 5 11 14 12 12 14 13 11 11 11 11 10 14 19 13
15 16 17 17 15 13 15 14 14 11 11 10 12 12 14 17 17 17 16 14 14 12 13 12 12 11 11 10 11 11 11 13 18 13 11 10 14 20 18 13 11 10 9 10 10 12 19 18 15 14 21 20 21 22 20 15 18 16 15 21 29 17
15 15 18 18 13 13 14 15 16 15 11 9 10 12 13 13 13 13 15 15 13 15 15 13 12 12 10 10 10 11 12 11 10 21 26 21 15 16 22 23 22 17 16 12 9 9 17 11 12 21 24 24 24 24 24 21 23 24 26 28 19 13
17 17 17 15 14 14 17 16 18 15 12 10 10 11 13 14 13 15 13 15 14 16 16 15 15 13 10 10 9 11 12 11 11 9 15 23 23 21 21 22 24 23 21 21 16 9 9 17 20 22 25 26 26 26 27 24 27 27 31 31 27 15
16 15 15 14 16 19 19 20 20 15 11 11 10 11 15 15 14 14 17 15 16 16 16 16 15 14 12 12 11 10 10 11 10 11 8 9 18 23 22 21 23 23 23 21 22 21 15 16 19 23 24 27 27 28 28 25 28 30 33 32 18 13
16 16 16 15 17 19 20 19 19 15 14 12 12 13 15 16 16 16 15 14 14 14 14 12 11 11 13 12 12 12 12 11 11 10 10 8 6 9 15 20 23 23 24 24 23 22 22 21 23 24 25 26 27 29 29 25 23 30 35 27 15 13
19 18 19 20 21 20 17 21 18 14 13 14 14 15 15 16 17 15 21 30 23 12 11 11 13 14 13 15 16 17 15 12 10 9 10 9 10 9 9 9 11 18 24 18 17 22 24 24 24 25 25 27 29 29 31 28 17 19 18 16 12 13
17 17 17 18 17 17 19 19 16 13 13 14 15 16 17 16 16 16 15 14 14 15 14 15 13 15 16 17 16 15 14 12 11 10 10 10 10 10 9 8 9 9 15 26 23 23 23 24 24 24 26 27 29 30 31 18 15 15 14 12 12 12
Wind_Direction
3 358 349 346 346 335 329 324 304 283 266 262 243 241 249 246 236 227 227 219 220 218 218 214 215 214 210 201 189 187 203 209 210 204 196 171 175 173 167 171 177 180 184 183 183 180 183 180 181 177 177 177 178 177 176 168 168 173 176 176 170 168
7 2 357 353 348 346 345 341 339 331 322 311 297 299 297 281 254 241 235 227 223 224 224 229 225 223 219 212 200 197 202 204 204 206 198 197 177 181 175 179 180 180 181 183 180 179 179 180 181 179 178 178 184 176 175 174 170 176 177 173 175 167
10 11 11 7 3 3 357 356 340 320 317 307 308 295 283 268 260 254 252 253 247 235 228 223 216 220 214 213 210 211 210 203 203 205 206 173 197 178 182 181 182 182 183 181 183 181 180 180 180 181 178 181 182 181 179 171 177 178 176 166 173 173
10 11 11 12 13 12 10 0 348 333 319 305 301 296 285 279 272 264 280 278 272 261 254 247 237 224 215 218 216 220 213 206 203 198 186 202 196 185 186 185 182 184 183 184 186 184 183 183 182 180 179 181 182 182 180 178 178 179 174 172 178 177
7 9 15 16 13 8 5 5 4 357 344 334 321 302 284 275 278 278 266 259 257 256 265 268 254 241 227 220 219 218 213 212 208 193 198 197 190 193 191 189 185 183 183 186 187 186 187 186 185 183 182 185 183 181 182 182 180 180 178 181 184 180
5 9 10 10 12 10 5 360 359 0 357 347 334 323 305 291 272 267 260 254 250 244 240 238 236 233 232 228 226 224 218 211 205 196 201 198 186 189 192 188 187 182 185 187 187 190 190 188 187 185 187 187 185 184 183 180 184 185 185 184 182 180
12 10 5 3 1 2 2 2 358 359 359 354 345 333 319 303 290 277 265 255 256 251 245 243 232 231 231 231 231 230 224 217 213 202 203 193 197 194 185 190 185 186 186 189 191 191 192 192 188 185 187 189 189 186 182 182 184 187 187 187 185 182
1 2 1 359 358 356 355 357 358 356 356 354 349 343 334 325 315 297 284 271 261 259 250 247 240 237 235 233 234 232 225 219 214 208 205 199 198 192 196 191 188 189 191 192 191 191 192 189 190 191 189 187 186 187 186 185 186 188 187 186 185 184
360 354 353 351 349 351 350 350 351 354 355 352 351 349 343 334 326 314 303 290 277 271 262 253 245 240 240 238 237 235 226 220 214 206 207 202 201 196 195 195 196 197 192 192 188 190 188 190 192 192 191 190 188 188 186 186 188 188 187 188 185 184
351 351 348 346 346 344 346 347 347 348 350 350 351 347 346 345 342 334 314 294 288 278 272 263 253 248 244 242 239 234 228 221 215 212 207 197 204 203 199 196 197 198 196 192 190 190 186 186 191 193 193 192 191 189 191 188 187 186 187 185 184 184
345 342 342 342 343 344 344 345 346 347 347 350 348 349 348 343 341 339 337 327 308 293 283 275 266 257 254 249 243 235 228 222 219 214 206 204 208 207 205 199 195 192 197 199 194 188 186 189 192 192 191 191 193 193 191 189 187 185 184 183 184 183
336 336 338 341 344 343 343 343 344 345 346 345 345 343 342 344 344 344 342 343 337 324 303 284 275 268 259 252 244 239 231 225 219 212 210 210 209 207 201 197 197 198 198 196 198 194 192 196 196 192 191 188 189 189 189 187 189 186 185 181 181 182
337 338 340 341 340 340 339 337 336 338 341 343 342 342 339 340 340 342 342 341 340 334 325 310 290 278 268 258 250 244 235 226 218 214 214 212 206 205 199 193 197 201 200 199 196 197 201 201 198 189 190 191 187 183 185 186 188 188 185 184 182 183
338 342 340 339 337 337 340 337 336 338 341 340 340 338 336 338 339 338 337 338 339 340 336 326 310 293 278 268 256 246 236 228 219 217 213 208 205 203 193 200 204 202 199 200 201 203 204 204 194 190 192 191 189 185 185 186 185 185 188 186 185 182
330 335 335 335 337 338 336 337 336 340 340 335 332 332 334 338 338 336 336 338 340 340 339 334 325 307 290 274 262 255 241 229 224 220 212 210 205 191 200 207 199 203 201 199 203 207 206 207 195 193 192 192 191 186 179 186 186 186 190 184 183 179
324 330 332 328 330 331 326 331 329 329 330 324 324 329 330 333 332 334 332 335 337 337 337 335 331 320 304 288 274 259 243 232 228 224 216 208 192 201 206 202 204 202 199 202 205 207 206 207 196 194 193 192 190 186 182 187 184 189 189 187 181 164
322 325 328 330 330 330 330 330 334 330 328 328 325 325 328 328 327 328 331 334 333 335 335 334 331 323 314 301 284 268 252 241 239 228 215 204 202 203 203 201 202 203 201 201 200 203 205 207 195 195 193 191 189 187 180 180 183 184 187 164 152 152
321 322 320 322 325 324 325 325 330 328 322 324 324 324 326 325 323 324 329 332 333 333 332 330 327 323 317 308 295 279 264 252 239 231 220 210 214 214 210 213 208 205 203 200 196 202 209 202 195 196 193 190 188 184 178 177 178 179 177 177 163 157
311 314 314 317 320 321 322 329 330 323 320 320 320 321 322 323 323 327 331 328 329 328 327 326 322 320 317 311 300 282 269 260 251 246 224 218 217 210 210 212 207 205 202 199 199 201 204 195 195 195 193 191 188 184 172 171 174 177 175 159 165 153
300 305 306 311 311 313 322 328 325 319 315 315 318 322 322 324 323 328 328 324 324 323 323 322 321 317 313 308 297 282 273 262 260 248 222 223 221 220 220 210 211 209 204 202 201 200 197 194 193 195 194 191 189 179 167 170 172 172 170 154 146 150
297 295 300 303 308 314 326 321 318 316 313 315 319 319 319 321 326 329 328 322 318 315 315 316 314 310 305 300 291 279 272 264 254 248 221 230 232 233 222 207 214 213 208 209 204 194 197 193 193 195 193 193 194 181 163 168 174 171 175 166 139 153
300 297 298 304 302 312 318 317 314 313 315 317 319 319 317 321 325 325 320 314 309 308 309 313 310 305 301 296 291 284 269 265 258 240 226 230 224 228 209 210 214 211 212 201 199 201 199 192 193 199 196 195 195 179 163 169 172 176 171 167 169 161
297 297 300 299 301 305 307 309 311 310 312 312 313 314 315 318 320 319 316 308 305 311 314 312 310 307 304 296 289 288 280 257 246 236 225 225 224 219 218 212 214 211 213 197 201 199 202 194 190 201 199 197 197 181 166 175 179 172 168 172 172 178
302 299 296 297 305 309 310 313 308 306 307 307 302 306 314 319 318 316 310 305 311 316 314 312 309 306 301 301 296 290 278 262 237 228 220 217 207 213 219 214 207 209 203 194 192 197 201 192 192 198 205 202 200 188 173 167 182 170 166 173 182 180
302 301 300 303 306 308 308 310 304 301 303 297 299 312 317 318 315 312 307 305 309 311 312 311 309 305 305 298 293 284 279 269 240 228 206 210 209 214 220 211 207 201 202 195 201 197 197 194 195 200 203 205 204 191 181 176 173 178 175 179 181 183
289 294 296 297 299 303 306 311 304 303 302 296 311 320 316 314 309 305 303 304 307 308 307 308 306 303 297 291 284 276 272 267 245 230 210 205 208 212 214 215 205 208 207 201 206 204 196 193 188 205 205 208 206 199 186 182 175 178 180 183 184 172
295 297 295 294 296 295 296 297 297 298 296 300 326 318 315 311 307 305 305 310 310 308 307 305 301 298 293 285 269 265 264 257 234 233 220 200 210 211 213 214 200 212 214 210 210 204 200 194 192 197 207 210 213 206 189 186 176 183 179 178 174 168
288 289 289 292 291 291 291 288 287 289 289 307 318 314 309 305 306 309 308 305 304 304 304 303 297 293 289 279 260 251 249 248 234 228 223 205 212 207 213 212 206 216 218 220 216 209 199 190 190 201 203 211 213 215 196 188 185 184 184 167 164 163
295 290 289 289 290 293 294 291 288 283 295 304 311 310 308 307 307 303 299 297 300 301 299 296 295 294 293 284 268 252 248 238 234 228 226 216 212 209 209 212 210 213 217 222 217 199 163 159 197 198 202 203 207 215 198 188 189 184 177 160 160 166
285 286 288 286 285 292 294 291 291 294 300 304 306 309 310 305 301 301 297 291 290 290 294 292 289 288 285 283 271 260 252 238 227 227 225 215 211 209 212 208 210 212 211 218 212 185 155 187 200 199 195 197 196 203 196 184 180 178 165 160 160 158
285 282 284 282 286 292 292 287 288 292 298 303 307 311 308 301 300 296 291 289 288 279 280 277 277 279 282 280 273 253 246 242 229 230 237 227 217 212 211 204 215 214 213 210 204 185 182 173 201 206 192 193 196 195 196 178 180 169 159 161 155 148
281 284 285 283 288 293 291 292 291 290 295 302 303 306 299 296 295 292 287 286 288 286 286 279 272 268 270 273 276 274 262 239 237 233 228 239 219 223 222 215 216 210 201 209 213 193 191 199 205 182 189 195 198 202 201 182 175 165 156 163 160 149
285 286 284 285 293 289 290 291 290 292 299 301 298 297 287 283 284 285 284 287 285 287 290 286 283 281 278 273 273 274 270 273 247 241 241 239 233 225 227 227 229 223 209 203 212 208 212 207 180 188 193 194 200 201 201 186 177 164 164 164 150 148
293 291 288 292 294 292 292 289 286 290 298 297 292 286 280 278 278 280 279 281 282 286 283 280 277 275 265 264 259 262 268 262 264 256 238 241 240 235 230 229 228 227 224 218 212 192 203 206 200 193 192 194 195 200 200 189 177 168 168 168 157 156
294 293 293 293 293 293 291 289 288 294 296 291 284 278 276 275 272 270 275 277 279 277 275 274 272 267 262 264 263 264 255 253 250 256 262 235 236 237 232 228 228 226 225 219 217 208 193 192 196 196 195 194 196 197 199 186 175 171 171 165 162 167
293 291 291 292 290 289 288 285 287 295 293 285 277 270 268 272 271 271 272 275 273 269 266 266 278 290 293 298 295 284 272 257 246 246 245 244 223 233 235 233 229 227 225 224 219 213 207 200 194 196 196 196 197 198 199 190 180 175 176 170 165 162
292 289 289 290 288 286 282 282 286 289 282 278 274 272 271 271 272 274 276 273 271 267 277 283 280 280 277 272 266 264 260 253 246 234 235 229 229 220 215 211 219 223 223 220 219 216 209 202 199 195 195 197 198 198 198 187 178 181 180 171 164 161
286 283 284 285 281 278 277 277 282 282 276 276 276 275 275 276 276 277 280 284 287 285 282 280 280 272 266 263 260 258 254 251 242 233 229 230 227 225 218 219 209 205 215 218 217 215 211 202 199 197 196 198 197 197 194 186 183 179 175 162 161 163